Weather in Lesnoye

Russia / Kaliningrad Oblast     55°00′50″N   22°11′53″E
temp.,
°C
wind,
m/s
gust,
m/s
humid.,
%
clouds,
%
prec.,
mm/h
press.,
hPa
HPBL,
m
6 march, sat
sat623:00−3nw387519 0.0 1023305
02:00−3nw24749 0.0 1025127
05:00−4wnw23710 0.0 102594
08:00−3wsw24680 0.0 1026134
11:00+1w465036 0.0 10251278
14:00+3wsw7104868 0.0 10231623
17:00+2wsw6115650 0.0 10201274
20:00+1wsw7156559 0.0 10171047
7 march, sun
sun723:00+3w91777100 0.0 10131314
02:00+3w101780100 0.1 10101267
05:00+2w91689100 0.1 10081020
08:00−1nw51087100 0.8 1008844
11:00+2wnw81548100 0.3 10091614
14:00+2wnw9144790 0.3 10091723
17:00+1wnw713520 0.0 10091676
20:00−1wnw5126517 0.0 1010738
8 march, mon
mon823:00−1wnw397467 0.0 1010771
02:00−2wnw3107375 0.0 1011606
05:00−2nw497947 0.0 1011783
08:00−2nw477758 0.0 1013925
11:00−1nnw565790 0.1 10141198
14:00+1nnw565095 0.1 10161429
17:000n5651100 0.1 10171424
20:00−3n386789 0.1 1020498
9 march, tue
tue923:00−4nne25700 0.0 1021601
02:00−4n246824 0.0 1022495
05:00−4nnw2367100 0.0 1023283
08:00−4n016589 0.0 1024106
11:00−2sw22475 0.0 1024731
14:00+1sw44383 0.0 10241041
17:000wsw46401 0.0 10221198
20:00−2w255951 0.0 1023161
10 march, wed
wed1023:00−2wsw4966100 0.0 1022475
02:00−2wsw51068100 0.0 1021517
05:00−3wsw5107391 0.0 1020401
08:00−2wsw6117295 0.0 1021536
11:00+2w686379 0.0 10211074
14:00+3w576089 0.0 10201199
17:00+2w465933 0.0 10191026
20:00−2wsw127932 0.0 101821